This demonstration page uses our WeatherBlox Daily Observations layout. Learn more.

Left ArrowRight Arrow

39.51506, -84.39828

Hourly Observations for September 25, 2021

Temp ( °F °C ) Dew Point ( °F °C ) Humidity (%) Winds ( mph kmh ) Pressure ( in mb ) Visibility ( mi km ) Precip ( " mm )
12:15 am 00:15 Clear 54 12 N/A N/A N N/A 30.04 1017 10 16 N/A
12:35 am 00:35 Clear 54 12 N/A N/A N N/A 30.04 1017 10 16 N/A
12:55 am 00:55 Clear 52 11 N/A N/A W 3 6 30.05 1017 10 16 N/A
1:15 am 01:15 Clear 54 12 N/A N/A SW 3 6 30.03 1017 10 16 N/A
1:35 am 01:35 Clear 54 12 N/A N/A N N/A 30.04 1017 10 16 N/A
1:55 am 01:55 Clear 53 11.8 53 11.7 99 99 SSW 5 7 30.03 1017 10 16 N/A
2:15 am 02:15 Clear 52 11 52 11 100 100 SW 3 6 30.04 1017 10 16 N/A
2:35 am 02:35 Clear 52 11 N/A N/A WSW 3 6 30.04 1017 10 16 N/A
2:55 am 02:55 Clear 52 11 N/A N/A WSW 3 6 30.04 1017 10 16 N/A
3:15 am 03:15 Clear 52 11 N/A N/A SW 5 7 30.03 1017 10 16 N/A
3:35 am 03:35 Clear 52 11 N/A N/A SSW 5 7 30.03 1017 10 16 N/A
3:55 am 03:55 Clear 52 11 N/A N/A WSW 3 6 30.02 1016 10 16 N/A
4:15 am 04:15 Clear 52 11 N/A N/A WSW 5 7 30.02 1016 10 16 N/A
4:35 am 04:35 Clear 52 11 N/A N/A SW 3 6 30.01 1016 10 16 N/A
4:55 am 04:55 Clear 52 11 N/A N/A SW 5 7 30.01 1016 10 16 N/A
5:15 am 05:15 Clear 54 12 N/A N/A WSW 5 7 29.99 1016 10 16 N/A
5:35 am 05:35 Clear 54 12 N/A N/A WSW 3 6 29.99 1016 10 16 N/A
5:55 am 05:55 Clear 54 12 54 12 100 100 W 7 11 30.00 1016 10 16 N/A
6:15 am 06:15 Partly Cloudy 54 12 N/A N/A SW 5 7 30.01 1016 10 16 N/A
6:35 am 06:35 Partly Cloudy 54 12 N/A N/A WSW 5 7 30.02 1017 10 16 N/A
6:55 am 06:55 Partly Cloudy 55 13 53 11.9 93 93 SW 7 11 30.03 1017 10 16 N/A
7:15 am 07:15 Cloudy 56 13.6 54 12 90 90 SW 8 13 30.04 1017 10 16 N/A
7:35 am 07:35 Cloudy 57 14 54 12 88 88 SW 7 11 30.04 1017 10 16 N/A
7:55 am 07:55 Cloudy 58 14.3 54 12.2 87 87 SW 8 13 30.04 1017 10 16 0.01 0.25
8:15 am 08:15 Cloudy 58 14.5 54 12.4 87 87 S 7 11 30.04 1017 10 16 N/A
8:35 am 08:35 Cloudy 59 14.9 54 12.4 85 85 S 6 9 30.02 1016 10 16 N/A
8:55 am 08:55 Cloudy with Light Rain 58 14.7 56 13.3 91 91 WSW 5 7 30.03 1017 10 16 N/A
9:15 am 09:15 Cloudy with Light Rain 58 14.4 56 13.6 95 95 SSW 8 13 30.04 1017 7 11 N/A
9:35 am 09:35 Partly Cloudy 58 14.4 57 14 97 97 WSW 3 6 30.03 1017 10 16 N/A
9:55 am 09:55 Sunny 59 14.8 57 14.1 96 96 WSW 6 9 30.03 1017 10 16 N/A
10:15 am 10:15 Sunny 59 15 57 13.8 93 93 WSW 9 15 30.04 1017 10 16 N/A
10:35 am 10:35 Sunny 60 15.4 57 13.9 91 91 W 9 15 30.04 1017 10 16 N/A
10:55 am 10:55 Mostly Cloudy 60 15.7 56 13.6 87 87 W 10 17 30.04 1017 10 16 N/A
11:15 am 11:15 Mostly Cloudy 61 16.3 56 13.5 84 84 WNW 9 15 30.04 1017 10 16 N/A
11:35 am 11:35 Cloudy 62 16.5 56 13.3 82 82 W 13 20 30.05 1018 10 16 N/A
11:55 am 11:55 Cloudy 62 16.7 56 13.1 79 79 WNW 10 17 30.05 1018 10 16 N/A
12:15 pm 12:15 Cloudy 62 16.4 55 12.9 80 80 WNW 8 13 30.06 1018 10 16 N/A
12:35 pm 12:35 Partly Cloudy 64 18 55 12.7 71 71 WNW 14 22 30.05 1018 10 16 N/A
12:55 pm 12:55 Mostly Cloudy 64 18 55 12.5 70 70 WNW 9 15 30.05 1018 10 16 N/A
1:15 pm 13:15 Mostly Cloudy 66 19.1 52 11.1 60 60 WNW 13 20 30.05 1017 10 16 N/A
1:35 pm 13:35 Partly Cloudy 67 19.3 47 8.3 49 49 WNW 9 15 30.05 1017 10 16 N/A
1:55 pm 13:55 Sunny 67 19.5 48 9 51 51 WSW 8 13 30.05 1017 10 16 N/A
2:15 pm 14:15 Sunny 68 20.1 48 8.8 48 48 WNW 12 19 30.04 1017 10 16 N/A
2:35 pm 14:35 Sunny 68 20 46 7.6 45 45 WNW 9 15 30.03 1017 10 16 N/A
2:55 pm 14:55 Sunny 68 20.2 45 7.3 43 43 WNW 10 17 30.02 1017 10 16 N/A
3:15 pm 15:15 Sunny 69 20.7 47 8.3 45 45 WNW 10 17 30.03 1017 10 16 N/A
3:35 pm 15:35 Partly Cloudy 69 20.8 47 8.2 44 44 W 8 13 30.02 1017 10 16 N/A
3:55 pm 15:55 Partly Cloudy 70 21.1 47 8.5 45 45 WNW 8 13 30.02 1017 10 16 N/A
4:15 pm 16:15 Partly Cloudy 68 20.2 47 8.1 46 46 WNW 14 22 30.02 1017 10 16 N/A
4:35 pm 16:35 Mostly Cloudy 71 21.4 47 8.5 44 44 WNW 10 17 30.02 1017 10 16 N/A
4:55 pm 16:55 Partly Cloudy 69 20.7 44 6.5 40 40 W 9 15 30.02 1017 10 16 N/A
5:15 pm 17:15 Partly Cloudy 69 20.4 43 6.3 40 40 WNW 8 13 30.02 1017 10 16 N/A
5:35 pm 17:35 Partly Cloudy 68 20.2 43 6.1 40 40 NW 10 17 30.02 1017 10 16 N/A
5:55 pm 17:55 Partly Cloudy 66 19.1 43 6 43 43 WNW 10 17 30.03 1017 10 16 N/A
6:15 pm 18:15 Partly Cloudy 67 19.5 42 5.4 40 40 NW 10 17 30.04 1017 10 16 N/A
6:35 pm 18:35 Partly Cloudy 67 19.2 41 5 39 39 NW 9 15 30.04 1017 10 16 N/A
6:55 pm 18:55 Partly Cloudy 65 18.2 43 6.3 46 46 WNW 7 11 30.05 1018 10 16 N/A
7:15 pm 19:15 Sunny 62 16.5 44 6.8 53 53 W 3 6 30.05 1018 10 16 N/A
7:55 pm 19:55 Clear 55 12.6 49 9.7 83 83 W 3 6 30.05 1018 10 16 N/A
8:15 pm 20:15 Clear 54 12.2 51 10.3 88 88 N N/A 30.05 1018 10 16 N/A
8:35 pm 20:35 Clear 54 12.4 50 10.2 87 87 N N/A 30.06 1018 10 16 N/A
8:55 pm 20:55 Clear 52 11.2 50 10.2 94 94 N N/A 30.07 1018 10 16 N/A
9:15 pm 21:15 Clear 51 10.7 51 10.5 99 99 N N/A 30.07 1018 10 16 N/A
9:35 pm 21:35 Clear 50 10 50 10 100 100 N N/A 30.08 1019 10 16 N/A
9:55 pm 21:55 Clear 50 10 N/A N/A N N/A 30.08 1019 10 16 N/A
10:15 pm 22:15 Clear 50 10 N/A N/A N N/A 30.09 1019 10 16 N/A
10:35 pm 22:35 Clear 48 9 N/A N/A N N/A 30.09 1019 10 16 N/A
10:55 pm 22:55 Clear 48 9 N/A N/A N N/A 30.09 1019 10 16 N/A
11:15 pm 23:15 Clear 48 9 N/A N/A N N/A 30.09 1019 10 16 N/A
11:35 pm 23:35 Clear 48 9 N/A N/A N N/A 30.09 1019 10 16 N/A
11:55 pm 23:55 Clear 48 9 N/A N/A N N/A 30.10 1019 10 16 N/A

Powered by AerisWeather